Location: Herm
(49.4830°N, 2.4500°W)
Time: 20:38:18
(UTC+01:00)

ISS - Visible Passes

Search period start: 28 July 2021 00:00
Search period end: 07 August 2021 00:00
Orbit: 419 x 421 km, 51.6° (Epoch: 28 July)

Date Brightness Start Highest point End Pass type
(mag) Time Alt. Az. Time Alt. Az. Time Alt. Az.
28 Jul -2.2 22:58:17 10° W 23:01:01 23° SW 23:01:36 21° SSW visible
29 Jul -2.6 22:10:44 10° W 22:13:49 32° SSW 22:15:55 17° SSE visible
31 Jul -1.4 22:13:35 10° W 22:15:37 15° SW 22:17:40 10° S visible
01 Aug -1.9 21:25:45 10° W 21:28:28 22° SW 21:31:09 10° SSE visible
